Debrecen, Hungary

4:42 AM CEST on October 20, 2017 (GMT +0200)
Debrecen

Weather History for LHDC - November, 2012

Change the Weather History Date:

Monday, November 26, 2012

  Actual Average Record
Temperature  
Mean Temperature 42 °F -  
Max Temperature 51 °F 38 °F - ()
Min Temperature 34 °F 28 °F - ()
Degree Days  
Heating Degree Days 22    
Moisture  
Dew Point 39 °F    
Average Humidity 83    
Maximum Humidity 100    
Minimum Humidity 61    
Precipitation  
Precipitation 0.00 in 0.06 in - ()
Sea Level Pressure  
Sea Level Pressure 30.13 in    
Wind  
Wind Speed 4 mph ()    
Max Wind Speed 8 mph    
Max Gust Speed -    
Visibility 4.6 miles    
Events      
T = Trace of Precipitation, MM = Missing Value Source: Averaged Metar Reports

Daily Weather History Graph

Daily Weather History Graph

Search for Another Location

Airport or City:

Trip Planner

Search our weather history database for the weather conditions in past years. The results will help you decide how hot, cold, wet, or windy it might be!

Date:

Astronomy

Nov. 26, 2012 Rise Set
Actual Time 6:54 AM CET 3:47 PM CET
Civil Twilight 6:19 AM CET 4:22 PM CET
Nautical Twilight 5:41 AM CET 5:00 PM CET
Astronomical Twilight 5:04 AM CET 5:36 PM CET
Moon 2:32 PM CET (11/26) 4:41 AM CET (11/26)
Length of Visible Light 10h 02m
Length of Day
8h 53m
Waxing Gibbous, 96% of the Moon is Illuminated
Nov 26
Waxing Gibbous
Nov 28
Full
Dec 6
Last Quarter
Dec 13
New
Dec 20
First Quarter

Hourly Weather History & Observations

Time (CET) Temp. Windchill Dew Point Humidity Pressure Visibility Wind Dir Wind Speed Gust Speed Precip Events Conditions
1:00 AM 35 °F - 34 °F 96% 30.20 in - East 4.5 mph - -  
5:15 AM 37.4 °F 34.9 °F 35.6 °F 93% 30.15 in 6.2 mi NE 3.5 mph - N/A   Mostly Cloudy
5:45 AM 37.4 °F 34.9 °F 37.4 °F 100% 30.15 in 6.2 mi ENE 3.5 mph - N/A   Mostly Cloudy
6:15 AM 37.4 °F 33.8 °F 37.4 °F 100% 30.15 in 5.0 mi ENE 4.6 mph - N/A   Mostly Cloudy
6:45 AM 39.2 °F - 37.4 °F 93% 30.15 in 3.7 mi ENE 2.3 mph - N/A   Mostly Cloudy
6:49 AM 39.2 °F 37.0 °F 37.4 °F 93% 30.18 in - ENE 3.5 mph - N/A   Mostly Cloudy
7:00 AM 38 °F - 37 °F 96% 30.18 in 4 mi ENE 2.2 mph - -   Partly Cloudy
7:15 AM 39.2 °F 37.0 °F 37.4 °F 93% 30.18 in 2.8 mi East 3.5 mph - N/A   Mostly Cloudy
7:45 AM 37.4 °F - 37.4 °F 100% 30.18 in 2.8 mi ESE 2.3 mph - N/A   Mostly Cloudy
8:15 AM 39.2 °F - 37.4 °F 93% 30.18 in - ENE 2.3 mph - N/A   Mostly Cloudy
8:45 AM 39.2 °F 35.9 °F 39.2 °F 100% 30.18 in 3.7 mi East 4.6 mph - N/A   Mostly Cloudy
8:47 AM 41.0 °F 38.0 °F 39.2 °F 93% 30.18 in 3.7 mi East 4.6 mph - N/A   Mostly Cloudy
9:00 AM - - - N/A% - 4.3 mi Variable 2.3 mph - N/A   Mostly Cloudy
9:15 AM 41.0 °F 38.0 °F 39.2 °F 93% 30.18 in 3.7 mi East 4.6 mph - N/A   Mostly Cloudy
9:45 AM 42.8 °F 39.3 °F 39.2 °F 87% 30.15 in 4.3 mi ESE 5.8 mph - N/A   Mostly Cloudy
10:15 AM 44.6 °F 42.2 °F 41.0 °F 87% 30.15 in 5.0 mi ESE 4.6 mph - N/A   Mostly Cloudy
10:45 AM 46.4 °F 42.9 °F 41.0 °F 81% 30.15 in 5.0 mi ESE 6.9 mph - N/A   Mostly Cloudy
11:15 AM 48.2 °F - 41.0 °F 76% 30.12 in 6.2 mi ESE 5.8 mph - N/A   Mostly Cloudy
11:45 AM 48.2 °F - 41.0 °F 76% 30.12 in - SE 6.9 mph - N/A   Clear
12:00 PM - - - N/A% - 1.9 mi SE 8.1 mph - N/A   Clear
12:15 PM 51.8 °F - 41.0 °F 67% 30.12 in - SE 6.9 mph - N/A   Clear
12:45 PM 50.0 °F - 41.0 °F 71% 30.12 in - SSE 6.9 mph - N/A   Clear
1:00 PM 50 °F - 41 °F 61% 30.12 in 9 mi SSE 6.7 mph - -   Partly Cloudy
1:15 PM 50.0 °F - 41.0 °F 71% 30.09 in - SE 5.8 mph - N/A   Clear
1:45 PM 50.0 °F - 41.0 °F 71% 30.09 in - ESE 4.6 mph - N/A   Clear
2:15 PM 50.0 °F - 41.0 °F 71% 30.09 in - ESE 4.6 mph - N/A   Clear
2:45 PM 50.0 °F - 41.0 °F 71% 30.09 in - East 5.8 mph - N/A   Clear
3:15 PM 48.2 °F - 41.0 °F 76% 30.09 in - East 5.8 mph - N/A   Clear
3:35 PM 48.2 °F - 41.0 °F 76% 30.06 in - East 6.9 mph - N/A   Unknown
3:45 PM 48.2 °F - 41.0 °F 76% 30.06 in 5.6 mi East 6.9 mph - N/A   Mostly Cloudy
4:15 PM 48.2 °F - 41.0 °F 76% 30.06 in - East 6.9 mph - N/A   Clear
4:45 PM 48.2 °F - 41.0 °F 76% 30.06 in - East 6.9 mph - N/A   Clear
6:00 PM - - - N/A% - - North - - N/A   Unknown
7:00 PM 47 °F - 41 °F 71% 30.05 in - East 6.7 mph - -